Location: Toronto
(43.6667°N, 79.4167°W)
Time: 15:56:02
(UTC-05:00)

Tiangong - Visible Passes

Search period start: 08 December 2022 00:00
Search period end: 18 December 2022 00:00
Orbit: 386 x 392 km, 41.5° (Epoch: 08 December)

Date Brightness Start Highest point End Pass type
(mag) Time Alt. Az. Time Alt. Az. Time Alt. Az.
08 Dec -0.6 18:33:00 10° W 18:35:52 31° SSW 18:36:30 28° S visible
09 Dec -1.0 17:34:42 10° W 17:37:44 41° SSW 17:40:46 10° ESE visible
09 Dec 0.9 19:12:27 10° WSW 19:13:45 13° SW 19:13:45 13° SW visible
10 Dec 0.3 18:13:38 10° WSW 18:16:06 21° SSW 18:18:33 10° SSE visible
11 Dec -0.1 17:15:07 10° W 17:17:56 29° SSW 17:20:45 10° SE visible
12 Dec 1.0 17:54:34 10° WSW 17:56:05 13° SSW 17:57:36 10° S visible
